Regional Weather Roundup
Issued by NWS

Home | Current Version | Previous Version | Text Only | Print | Product List | Glossary Off
Versions: 1 2 3 4 5 6 7 8 9 10 11 12 13 14 15 16 17 18 19 20 21 22 23 24 25 26 27

000
ASUS45 KCYS 240210
RWRWY

WYOMING REGIONAL WEATHER ROUNDUP
NATIONAL WEATHER SERVICE CHEYENNE WY
800 PM MDT FRI JUN 23 2017

NOTE:  "FAIR" INDICATES FEW OR NO CLOUDS BELOW 12,000 FEET
WITH NO SIGNIFICANT WEATHER AND/OR OBSTRUCTIONS TO VISIBILITY.

WYZ001-240300-
YELLOWSTONE NATIONAL PARK

CITY           SKY/WX    TMP DP  RH WIND       PRES   REMARKS
LK YELLOWSTONE   N/A     59  27  29 VRB3      30.37R
W YELLOWSTONE  NOT AVBL

$$
WYZ002>013-054>058-071-098>099-240300-
NORTHERN WYOMING

CITY           SKY/WX    TMP DP  RH WIND       PRES   REMARKS
JACKSON        SUNNY     64  28  25 W5        30.27S
CODY           FAIR      64  31  28 N10       30.28R
GREYBULL       FAIR      71  26  18 N18       30.20R
WORLAND        FAIR      69  35  28 NE6       30.21R
SHERIDAN       CLOUDY    65  37  35 N7        30.25R
BUFFALO        FAIR      61  33  35 N9        30.29R
GILLETTE       FAIR      62  31  31 N13       30.25R
NEWCASTLE      FAIR      63  27  25 N10G17    30.24S

$$
WYZ014>020-022>026-101>103-240300-
CENTRAL WYOMING

CITY           SKY/WX    TMP DP  RH WIND       PRES   REMARKS
BIG PINEY      FAIR      67  28  23 N13       30.28R
PINEDALE       FAIR      66  21  18 NW15G24   30.28R
DUBOIS         FAIR      59  32  36 SE17      30.29S
LANDER         FAIR      64  35  34 NE10      30.23R
RIVERTON       FAIR      66  28  24 N12       30.24R
CASPER         FAIR      63  31  30 NE15      30.25R
DOUGLAS        FAIR      63  30  28 N14       30.26R

$$
WYZ021-027>030-104>119-240300-
SOUTHERN WYOMING

CITY           SKY/WX    TMP DP  RH WIND       PRES   REMARKS
EVANSTON       FAIR      70  31  23 NW10      30.30R
KEMMERER         N/A     66  30  26 NW13      30.31R
FORT BRIDGER   FAIR      73  24  16 NW17      30.31R
ROCK SPRINGS   FAIR      73  16  11 W17G25    30.22R
DIXON          FAIR      75  22  14 N10       30.23S
RAWLINS        FAIR      67  29  24 NE16      30.24S
SARATOGA       FAIR      68  30  24 NW10      30.26S
LARAMIE        FAIR      59  38  45 E13       30.30R
CHEYENNE       MOCLDY    60  39  45 E5        30.29R
TORRINGTON     FAIR      66  27  23 N9        30.21R
PINE BLUFFS    FAIR      63  41  45 NE6       30.26R

$$




USA.gov is the U.S. government's official web portal to all federal, state and local government web resources and services.